EW4652 Weather Reports


Display with metric or nautical units.
time (UTC)temp
F
wind
direction
speed
MPH
gust
MPH
rain 1hr
in
rain 24hr
in
rain mn
in
humidity
%
barometer
mb
20260901190021 81 108 5.0 8.0 0.00 0.00 0.00 72 1013.4
20260901184527 84 40 2.0 3.0 0.00 0.00 0.00 73 1015.2
20260901183027 86 40 0.0 3.0 0.00 0.00 0.00 55 1014.6
20260901181521 87 42 2.0 4.0 0.00 0.00 0.00 58 1014.4
20260901180017 87 37 2.0 4.0 0.00 0.00 0.00 56 1014.5
20260901174513 86 53 1.0 4.0 0.00 0.00 0.00 55 1014.6
20260901173010 86 21 1.0 4.0 0.00 0.00 0.00 60 1014.6
20260901171508 85 88 2.0 5.0 0.00 0.00 0.00 65 1014.7
20260901170005 85 76 2.0 5.0 0.00 0.00 0.00 62 1014.8
20260901164504 84 325 1.0 9.0 0.00 0.00 0.00 66 1014.7
20260901163100 84 315 1.0 5.0 0.00 0.00 0.00 71 1014.7
20260901161557 83 323 0.0 5.0 0.00 0.00 0.00 72 1014.8
20260901160056 82 5 1.0 5.0 0.00 0.00 0.00 76 1014.7
20260901154552 81 303 2.0 4.0 0.00 0.00 0.00 77 1014.7
20260901153050 81 297 0.0 5.0 0.00 0.00 0.00 77 1014.7
20260901151546 81 289 1.0 2.0 0.00 0.00 0.00 81 1014.5
20260901150042 78 289 0.0 2.0 0.00 0.00 0.00 82 1014.7
20260901144540 78 289 0.0 4.0 0.00 0.00 0.00 84 1014.9
20260901143043 77 325 1.0 3.0 0.00 0.00 0.00 83 1014.9
20260901141533 77 331 1.0 2.0 0.00 0.00 0.00 85 1014.8
20260901140042 75 331 0.0 2.0 0.00 0.00 0.00 83 1014.8
20260901134527 74 331 1.0 3.0 0.00 0.00 0.00 88 1014.8
20260901133024 71 331 0.0 1.0 0.00 0.00 0.00 96 1014.8
20260901131516 69 331 0.0 1.0 0.00 0.00 0.00 96 1014.8
20260901130033 68 331 0.0 1.0 0.00 0.00 0.00 96 1014.7
20260901124613 66 331 0.0 0.0 0.00 0.00 0.00 96 1014.9
20260901123018 65 331 1.0 2.0 0.00 0.00 0.00 96 1014.9
20260901121506 65 331 0.0 1.0 0.00 0.00 0.00 96 1015.0
20260901120004 64 331 0.0 1.0 0.00 0.00 0.00 95 1014.9
20260901114600 64 331 0.0 1.0 0.00 0.00 0.00 95 1014.8
20260901113059 64 331 0.0 1.0 0.00 0.00 0.00 94 1014.4
20260901111555 65 331 0.0 1.0 0.00 0.00 0.00 94 1014.1
20260901110058 65 331 0.0 1.0 0.00 0.00 0.00 94 1014.0
20260901104555 66 331 0.0 2.0 0.00 0.00 0.00 94 1014.1
20260901103051 67 331 1.0 2.0 0.00 0.00 0.00 96 1014.0
20260901101551 66 331 2.0 3.0 0.00 0.00 0.00 96 1014.2
20260901100051 65 286 1.0 2.0 0.00 0.00 0.00 96 1014.1
20260901094551 65 286 0.0 1.0 0.00 0.00 0.00 95 1014.1
20260901093048 65 286 0.0 2.0 0.00 0.00 0.00 96 1013.9
20260901091547 65 286 0.0 1.0 0.00 0.00 0.00 96 1013.9
20260901090046 65 286 0.0 1.0 0.00 0.00 0.00 95 1014.1
20260901084546 66 286 0.0 1.0 0.00 0.00 0.00 95 1013.9
20260901083044 66 286 1.0 2.0 0.00 0.00 0.00 95 1013.7
20260901081541 66 286 0.0 2.0 0.00 0.00 0.00 95 1013.7
20260901080040 67 286 0.0 1.0 0.00 0.00 0.00 95 1013.7
20260901074538 69 286 0.0 1.0 0.00 0.00 0.00 94 1013.9
20260901073037 70 286 0.0 1.0 0.00 0.00 0.00 96 1013.9
20260901071536 70 286 0.0 3.0 0.00 0.00 0.00 96 1013.9
20260901070036 70 283 0.0 2.0 0.00 0.00 0.00 96 1014.0
20260901064534 68 283 1.0 2.0 0.00 0.00 0.00 96 1014.1
20260901063033 67 283 0.0 1.0 0.00 0.00 0.00 95 1014.1
20260901061531 68 283 0.0 2.0 0.00 0.00 0.00 95 1014.1
20260901060030 69 283 0.0 2.0 0.00 0.00 0.00 96 1014.0
20260901054528 69 283 0.0 2.0 0.00 0.00 0.00 95 1013.9
20260901053040 68 283 0.0 1.0 0.00 0.00 0.00 95 1013.7
20260901051524 68 283 0.0 2.0 0.00 0.00 0.00 96 1013.5
20260901050022 68 283 0.0 2.0 0.00 0.00 0.00 95 1013.5
20260901044520 68 283 0.0 2.0 0.00 0.00 0.00 94 1013.4
20260901043020 69 283 0.0 1.0 0.00 0.00 0.00 95 1013.3
20260901041518 68 283 1.0 2.0 0.00 0.00 0.00 94 1013.2
20260901040018 69 283 0.0 1.0 0.00 0.00 0.00 94 1013.2
20260901034523 70 283 1.0 2.0 0.00 0.00 0.00 94 1013.2
20260901033022 70 283 0.0 0.0 0.00 0.00 0.00 94 1013.1
20260901031521 71 283 0.0 2.0 0.00 0.00 0.00 94 1013.3
20260901030015 71 283 0.0 1.0 0.00 0.00 0.00 94 1013.1
20260901024514 71 283 0.0 0.0 0.00 0.00 0.00 94 1013.1
20260901023018 71 283 1.0 3.0 0.00 0.00 0.00 93 1013.0
20260901021512 72 283 0.0 2.0 0.00 0.00 0.00 93 1012.8
20260901020009 72 283 1.0 2.0 0.00 0.00 0.00 93 1012.6
20260901014509 73 283 0.0 1.0 0.00 0.00 0.00 92 1012.7
20260901013007 74 283 0.0 2.0 0.00 0.00 0.00 92 1012.5
20260901011515 75 283 0.0 2.0 0.00 0.00 0.00 92 1012.3
20260901010004 76 283 0.0 2.0 0.00 0.00 0.00 91 1012.1
20260901004503 77 283 0.0 2.0 0.00 0.00 0.00 89 1012.2
20260901003002 79 283 0.0 1.0 0.00 0.00 0.00 88 1012.1
20260901001502 80 283 0.0 2.0 0.00 0.00 0.00 87 1011.9
20260901000001 81 283 1.0 3.0 0.00 0.00 0.00 86 1011.9
20260831234600 82 298 2.0 5.0 0.00 0.00 0.00 84 1012.1
20260831233058 83 299 3.0 9.0 0.00 0.00 0.00 83 1012.0
20260831231558 83 304 5.0 10.0 0.00 0.00 0.00 84 1011.9
20260831230109 83 302 7.0 10.0 0.00 0.00 0.00 82 1011.8
20260831224556 84 298 7.0 10.0 0.00 0.00 0.00 81 1011.6
20260831223056 85 307 6.0 10.0 0.00 0.00 0.00 81 1011.5
20260831221602 86 318 7.0 11.0 0.00 0.00 0.00 80 1011.4
20260831220107 86 249 5.0 9.0 0.00 0.00 0.00 81 1011.3
20260831214556 85 243 5.0 11.0 0.00 0.07 0.00 80 1011.4
20260831213101 86 262 6.0 12.0 0.00 0.07 0.00 80 1011.3
20260831211602 86 240 6.0 11.0 0.00 0.07 0.00 79 1011.2
20260831210051 85 224 5.0 10.0 0.00 0.07 0.00 81 1011.3
20260831204555 85 244 6.0 12.0 0.00 0.28 0.00 81 1011.6
20260831203052 85 250 7.0 13.0 0.00 0.28 0.00 80 1011.5
20260831201548 86 255 5.0 11.0 0.00 0.28 0.00 80 1011.3
20260831200054 85 238 5.0 9.0 0.00 0.28 0.00 81 1011.3
20260831194550 85 232 3.0 10.0 0.00 0.28 0.00 83 1011.2
20260831193046 83 214 5.0 8.0 0.00 0.28 0.00 83 1011.0
20260831191544 82 205 3.0 6.0 0.00 0.28 0.00 85 1010.9